Погода в Шадейке

Россия / Пермский край     57°26′58″N   56°47′48″E
темп.,
°C
ветер,
м/с
пор.,
м/с
влажн.,
%
обл.,
%
осадки,
мм/ч
давл.,
гПа
погр.,
м
18 августа, чт
чт1823:00+13ссв349268 0.4 1024102
02:00+10с22945 0.0 102424
05:00+8ссв33940 0.0 102544
08:00+11всв23830 0.0 1026174
11:00+16в33513 0.0 1027784
14:00+19всв34395 0.0 10261888
17:00+20св453612 0.0 10262248
20:00+15в35605 0.0 102778
19 августа, пт
пт1923:00+10вюв23725 0.0 103029
02:00+8всв11801 0.0 103110
05:00+7всв118541 0.0 103310
08:00+11зсз107020 0.0 1034106
11:00+16сз2352100 0.0 1034667
14:00+21ссз454232 0.0 10321395
17:00+22ссз56386 0.0 10311593
20:00+17ссз23585 0.0 103024
20 августа, сб
сб2023:00+13сз33675 0.0 103138
02:00+13сз34695 0.0 103162
05:00+12зсз357313 0.0 103186
08:00+16сз4116944 0.0 1031282
11:00+22ссз595534 0.0 1030582
14:00+25ссз684614 0.0 10281162
17:00+27с67425 0.0 10272356
20:00+22ссз496013 0.0 1027321
21 августа, вс
вс2123:00+17ссз348037 0.2 102856
02:00+15с229024 0.1 102829
05:00+16с229179 0.2 102842
08:00+17ссв238761 0.1 1029172
11:00+21св346997 0.1 1028900
14:00+22в3363100 0.1 10281148
17:00+23всв335493 0.2 10281234
20:00+19вюв226826 0.0 102814
22 августа, пн
пн2223:00+16з007547 0.0 102811
02:00+17ююз006962 0.0 102811
05:00+14ю118154 0.0 102910
08:00+17вюв10715 0.0 1030115
11:00+21в22595 0.0 1030636
14:00+25в33495 0.0 10291249
17:00+25в23465 0.0 10291421
20:00+21ююв11605 0.0 102911